Weather History for Key West NAF, FL

Change the Weather History Date:

Monday, October 28, 2013

  Actual Average Record
Temperature  
Mean Temperature 80 °F -  
Max Temperature 84 °F 83 °F 91 °F (1960)
Min Temperature 75 °F 74 °F 60 °F (1957)
Cooling Degree Days 14    
Growing Degree Days 30 (Base 50)    
Moisture  
Dew Point 67 °F    
Average Humidity 70    
Maximum Humidity 82    
Minimum Humidity 46    
Precipitation  
Precipitation 0.00 in - - ()
Sea Level Pressure  
Sea Level Pressure 30.07 in    
Wind  
Wind Speed 9 mph (ENE)    
Max Wind Speed 13 mph    
Max Gust Speed 20 mph    
Visibility 10 miles    
Events      
Averages and records for this station are not official NWS values.
T = Trace of Precipitation, MM = Missing Value Source: NWS Daily Summary

Daily Weather History Graph

Daily Weather History Graph

Search for Another Location

Airport:

Trip Planner

Search our weather history database for the weather conditions in past years. The results will help you decide how hot, cold, wet, or windy it might be!

Date:

Astronomy

Oct. 28, 2013 Rise Set
Actual Time 7:31 AM EDT 6:49 PM EDT
Civil Twilight 7:08 AM EDT 7:12 PM EDT
Nautical Twilight 6:41 AM EDT 7:39 PM EDT
Astronomical Twilight 6:14 AM EDT 8:06 PM EDT
Moon 2:00 AM EDT (10/28) 2:56 PM EDT (10/28)
Length of Visible Light 12h 04m
Length of Day
11h 17m
Waning Crescent, 34% of the Moon is Illuminated
Oct 28
Waning Crescent
Nov 3
New
Nov 10
First Quarter
Nov 17
Full
Nov 25
Last Quarter

Hourly Weather History & Observations

Time (EDT) Temp. Heat Index Dew Point Humidity Pressure Visibility Wind Dir Wind Speed Gust Speed Precip Events Conditions
12:53 AM 75.0 °F - 66.9 °F 76% 30.06 in 10.0 mi ENE 6.9 mph - N/A   Clear
1:53 AM 75.0 °F - 66.9 °F 76% 30.06 in 10.0 mi NE 5.8 mph - N/A   Clear
2:53 AM 75.0 °F - 68.0 °F 79% 30.04 in 10.0 mi NE 5.8 mph - N/A   Clear
3:53 AM 75.0 °F - 69.1 °F 82% 30.03 in 10.0 mi NE 6.9 mph - N/A   Clear
4:53 AM 75.0 °F - 69.1 °F 82% 30.02 in 10.0 mi NE 6.9 mph - N/A   Clear
5:53 AM 75.0 °F - 69.1 °F 82% 30.02 in 10.0 mi NE 9.2 mph - N/A   Scattered Clouds
6:53 AM 75.0 °F - 69.1 °F 82% 30.04 in 10.0 mi NE 9.2 mph - N/A   Scattered Clouds
7:53 AM 75.0 °F - 68.0 °F 79% 30.06 in 10.0 mi NE 10.4 mph 17.3 mph N/A   Mostly Cloudy
8:53 AM 75.9 °F - 66.9 °F 74% 30.08 in 10.0 mi NE 9.2 mph - N/A   Mostly Cloudy
9:53 AM 80.1 °F 82.3 °F 66.9 °F 64% 30.11 in 10.0 mi NE 9.2 mph 16.1 mph N/A   Mostly Cloudy
10:53 AM 81.0 °F 83.8 °F 68.0 °F 65% 30.12 in 10.0 mi ENE 9.2 mph 18.4 mph N/A   Scattered Clouds
11:53 AM 82.0 °F 84.9 °F 68.0 °F 62% 30.11 in 10.0 mi ENE 10.4 mph 18.4 mph N/A   Scattered Clouds
12:53 PM 82.9 °F 85.4 °F 66.9 °F 58% 30.09 in 10.0 mi ENE 12.7 mph 18.4 mph N/A   Scattered Clouds
1:53 PM 84.0 °F 86.5 °F 66.9 °F 56% 30.08 in 10.0 mi ENE 12.7 mph - N/A   Partly Cloudy
2:53 PM 82.9 °F 85.0 °F 66.0 °F 56% 30.06 in 10.0 mi ENE 11.5 mph 17.3 mph N/A   Partly Cloudy
3:53 PM 82.9 °F 84.0 °F 63.0 °F 51% 30.05 in 10.0 mi ENE 10.4 mph 19.6 mph N/A   Partly Cloudy
4:53 PM 82.9 °F 83.2 °F 60.1 °F 46% 30.06 in 10.0 mi ENE 10.4 mph - N/A   Partly Cloudy
5:53 PM 81.0 °F 83.3 °F 66.9 °F 62% 30.07 in 10.0 mi East 12.7 mph - N/A   Partly Cloudy
6:53 PM 79.0 °F - 69.1 °F 72% 30.07 in 10.0 mi ENE 11.5 mph - N/A   Partly Cloudy
7:53 PM 79.0 °F - 69.1 °F 72% 30.09 in 10.0 mi ENE 11.5 mph - N/A   Clear
8:53 PM 78.1 °F - 69.1 °F 74% 30.10 in 10.0 mi East 12.7 mph - N/A   Clear
9:53 PM 78.1 °F - 69.1 °F 74% 30.12 in 10.0 mi ENE 11.5 mph - N/A   Clear
10:53 PM 77.0 °F - 69.1 °F 76% 30.12 in 10.0 mi ENE 10.4 mph - N/A   Clear
11:53 PM 77.0 °F - 68.0 °F 74% 30.11 in 10.0 mi ENE 9.2 mph - N/A   Clear